Regional Weather Roundup
Issued by NWS Midland/Odessa, TX

Skip options and go directly to product.
Home | Oldest Version | Previous Version | Current Version | All | Text Only | Save Text | Print | Product List | Glossary On

Skip product version selection by date and time.   
934
ASUS44 KMAF 191110
RWRMAF
MIDLAND AREA WEATHER ROUNDUP
NATIONAL WEATHER SERVICE MIDLAND TX
600 AM CDT SUN APR 19 2015

...IN SOUTHWEST TEXAS AND SOUTHEAST NEW MEXICO...

CITY           SKY/WX    TMP DP  RH WIND       PRES   REMARKS
ALPINE         CLEAR     60  19  21 NW13      30.02R
ANDREWS        FAIR      53  32  44 N12       29.85S
ARTESIA        CLEAR     50  34  53 W13       29.90R
BIG SPRING     CLEAR     54  31  41 W7        29.84S
CARLSBAD       CLEAR     50  34  54 SW10      29.87S
DRYDEN           N/A     59  30  33 W10       29.83S
FORT STOCKTON  CLEAR     58  26  29 NW10      29.89R
GUAD PASS      CLEAR     52  23  32 SW9       29.98S
HOBBS          CLEAR     48  34  57 NW9       29.89R
MARFA          CLEAR     43  23  45 W6        30.01R WCI  39
MIDLAND AIRPK  CLEAR     56  32  39 NW7       29.85R
MIDLAND INTL   CLEAR     53  33  46 NW10      29.83S
ODESSA         CLEAR     55  30  38 NW10      29.85R
PECOS          CLEAR     54  27  35 W8        29.88R
PRESIDIO       FAIR      55  24  29 N10       29.92S
SEMINOLE       CLEAR     52  33  48 NW12      29.87R
SNYDER         CLEAR    N/A N/A N/A W9        29.77S
WINK           CLEAR     48  27  44 NW10      29.85R
$$
...OTHER STATIONS IN TEXAS...

CITY           SKY/WX    TMP DP  RH WIND       PRES   REMARKS
ABILENE        CLEAR     55  50  83 SW8       29.74S
AMARILLO       CLEAR     43  34  70 NW7       29.87S WCI  39
AUSTIN         CLOUDY    60  60 100 CALM      29.79F
BROWNSVILLE    PTCLDY    71  70  96 SE3       29.76F
CORPUS CHRISTI MOCLDY    67  66  97 CALM      29.81R
DALLAS FTW     PTCLDY    54  54 100 SE6       29.73F
DEL RIO        FOG       66  66 100 SE7       29.80R VSB 1/2
EL PASO        PTCLDY    64  17  16 W14       29.93S
HOUSTON INT    PTCLDY    59  58  96 CALM      29.79R
LUBBOCK        CLEAR     47  37  68 N16       29.82R
SAN ANGELO     PTCLDY    57  56  96 W8        29.80R
SAN ANTONIO    FOG       68  66  93 S6        29.82R VSB 1/8
WACO           MOCLDY    60  58  92 S12       29.74F
WICHITA FALLS  NOT AVBL
$$
...OTHER LOCATIONS IN NEW MEXICO...

CITY           SKY/WX    TMP DP  RH WIND       PRES   REMARKS
ALAMAGORDO     CLEAR     46  28  49 CALM      29.96R
ALBUQUERQUE    PTCLDY    48  31  51 NW15      30.00S
CANNON AFB     NOT AVBL
CLOVIS         CLEAR     45  27  49 N17       29.91S WCI  37
HOLLOMAN AFB   CLEAR     42  27  55 NE7       29.95R WCI  37
ROSWELL        CLEAR     46  33  60 N8        29.91R
RUIDOSO        CLEAR     46  19  34 NW12G21   30.04R
SANTA FE       CLEAR     36  27  69 N10       29.98S WCI  28
TRUTH OR CONSE CLEAR     52  23  32 NW15      29.98R
TUCUMCARI      CLEAR     42  28  57 VRB5      29.93R WCI  39
$$

USA.gov is the U.S. government's official web portal to all federal, state and local government web resources and services.